Weather History for Canton, GA

Change the Weather History Date:

Wednesday, April 24, 2013

  Actual Average (KGVL) Record (KGVL)
Temperature  
Mean Temperature 62 °F 63 °F  
Max Temperature 73 °F 73 °F 90 °F (1960)
Min Temperature 51 °F 52 °F 34 °F (1969)
Degree Days  
Heating Degree Days 3 4  
Month to date heating degree days 154  
Since 1 July heating degree days 3006  
Cooling Degree Days 0 1  
Month to date cooling degree days 22  
Year to date cooling degree days 27  
Growing Degree Days 12 (Base 50)    
Moisture  
Dew Point 49 °F    
Average Humidity 68    
Maximum Humidity 94    
Minimum Humidity 38    
Precipitation  
Precipitation 0.00 in 0.13 in 1.79 in (1967)
Month to date precipitation 2.83  
Year to date precipitation 18.15  
Sea Level Pressure  
Sea Level Pressure 30.11 in    
Wind  
Wind Speed 3 mph (SW)    
Max Wind Speed 20 mph    
Max Gust Speed 26 mph    
Visibility 8 miles    
Events Rain    
T = Trace of Precipitation, MM = Missing Value Source: NWS Daily Summary

Daily Weather History Graph

Daily Weather History Graph

Search for Another Location

Airport:

Trip Planner

Search our weather history database for the weather conditions in past years. The results will help you decide how hot, cold, wet, or windy it might be!

Date:

Astronomy

Apr. 24, 2013 Rise Set
Actual Time 6:55 AM EDT 8:16 PM EDT
Civil Twilight 6:29 AM EDT 8:43 PM EDT
Nautical Twilight 5:57 AM EDT 9:14 PM EDT
Astronomical Twilight 5:24 AM EDT 9:47 PM EDT
Moon 7:20 PM EDT (4/24) 5:55 AM EDT (4/24)
Length of Visible Light 14h 14m
Length of Day
13h 21m
Waxing Gibbous, 98% of the Moon is Illuminated
Apr 24
Waxing Gibbous
Apr 25
Full
May 2
Last Quarter
May 9
New
May 18
First Quarter

Hourly Weather History & Observations

Time (EDT) Temp. Dew Point Humidity Pressure Visibility Wind Dir Wind Speed Gust Speed Precip Events Conditions
12:15 AM 60.8 °F 42.8 °F 52% 30.12 in 10.0 mi Calm Calm - N/A   Clear
12:35 AM 57.2 °F 42.8 °F 59% 30.12 in 10.0 mi Calm Calm - N/A   Clear
12:55 AM 55.4 °F 42.8 °F 63% 30.13 in 10.0 mi Calm Calm - N/A   Clear
1:15 AM 53.6 °F 42.8 °F 67% 30.13 in 10.0 mi Calm Calm - N/A   Clear
1:35 AM 53.6 °F 42.8 °F 67% 30.13 in 10.0 mi Calm Calm - N/A   Clear
1:55 AM 53.6 °F 44.6 °F 72% 30.14 in 10.0 mi Calm Calm - N/A   Mostly Cloudy
2:15 AM 55.4 °F 44.6 °F 67% 30.13 in 10.0 mi Calm Calm - N/A   Overcast
2:35 AM 53.6 °F 44.6 °F 72% 30.13 in 10.0 mi Calm Calm - N/A   Mostly Cloudy
2:55 AM 53.6 °F 44.6 °F 72% 30.12 in 10.0 mi North 3.5 mph - N/A   Overcast
3:15 AM 53.6 °F 44.6 °F 72% 30.12 in 10.0 mi NNE 3.5 mph - N/A   Overcast
3:35 AM 55.4 °F 44.6 °F 67% 30.11 in 10.0 mi Calm Calm - N/A   Overcast
3:55 AM 53.6 °F 44.6 °F 72% 30.11 in 10.0 mi Calm Calm - N/A   Overcast
4:15 AM 55.4 °F 44.6 °F 67% 30.11 in 10.0 mi Calm Calm - N/A   Overcast
4:35 AM 53.6 °F 44.6 °F 72% 30.10 in 10.0 mi Calm Calm - N/A   Overcast
4:55 AM 53.6 °F 44.6 °F 72% 30.11 in 10.0 mi Calm Calm - N/A   Overcast
5:15 AM 53.6 °F 44.6 °F 72% 30.11 in 10.0 mi Calm Calm - N/A   Overcast
5:35 AM 53.6 °F 44.6 °F 72% 30.11 in 10.0 mi Calm Calm - N/A   Overcast
5:55 AM 55.4 °F 44.6 °F 67% 30.11 in 10.0 mi Calm Calm - N/A   Overcast
6:15 AM 53.6 °F 44.6 °F 72% 30.11 in 10.0 mi Calm Calm - N/A   Overcast
6:35 AM 53.6 °F 44.6 °F 72% 30.11 in 10.0 mi Calm Calm - N/A   Overcast
6:55 AM 55.4 °F 44.6 °F 67% 30.11 in 10.0 mi Calm Calm - N/A   Mostly Cloudy
7:15 AM 55.4 °F 44.6 °F 67% 30.11 in 10.0 mi East 3.5 mph - N/A   Scattered Clouds
7:35 AM 53.6 °F 44.6 °F 72% 30.11 in 10.0 mi East 4.6 mph - N/A   Clear
7:55 AM 55.4 °F 44.6 °F 67% 30.11 in 10.0 mi Calm Calm - N/A   Clear
8:15 AM 57.2 °F 46.4 °F 67% 30.10 in 10.0 mi Calm Calm - N/A   Clear
8:35 AM 59.0 °F 46.4 °F 63% 30.10 in 10.0 mi Calm Calm - N/A   Clear
8:55 AM 60.8 °F 46.4 °F 59% 30.10 in 10.0 mi SSW 3.5 mph - N/A   Clear
9:15 AM 60.8 °F 46.4 °F 59% 30.10 in 10.0 mi SSE 5.8 mph - N/A   Clear
9:35 AM 62.6 °F 46.4 °F 55% 30.10 in 10.0 mi South 6.9 mph - N/A   Clear
9:55 AM 64.4 °F 48.2 °F 56% 30.10 in 10.0 mi SSW 9.2 mph - N/A   Clear
10:15 AM 68.0 °F 48.2 °F 49% 30.11 in 10.0 mi SSW 11.5 mph 16.1 mph N/A   Clear
10:35 AM 68.0 °F 50.0 °F 52% 30.12 in 10.0 mi SW 13.8 mph - N/A   Clear
10:55 AM 68.0 °F 50.0 °F 52% 30.14 in 10.0 mi South 10.4 mph 18.4 mph N/A   Mostly Cloudy
11:15 AM 68.0 °F 50.0 °F 52% 30.14 in 10.0 mi SSW 15.0 mph 20.7 mph N/A   Overcast
11:35 AM 69.8 °F 50.0 °F 49% 30.13 in 10.0 mi SW 18.4 mph 24.2 mph N/A   Mostly Cloudy
11:55 AM 69.8 °F 50.0 °F 49% 30.13 in 10.0 mi SSW 18.4 mph 23.0 mph N/A   Mostly Cloudy
12:15 PM 69.8 °F 48.2 °F 46% 30.12 in 10.0 mi SSW 19.6 mph 26.5 mph N/A   Mostly Cloudy
12:35 PM 71.6 °F 48.2 °F 43% 30.10 in 10.0 mi SSW 18.4 mph 24.2 mph N/A   Scattered Clouds
12:55 PM 71.6 °F 46.4 °F 41% 30.11 in 10.0 mi SSW 13.8 mph 25.3 mph N/A   Scattered Clouds
1:15 PM 73.4 °F 46.4 °F 38% 30.11 in 10.0 mi SSW 16.1 mph 20.7 mph N/A   Scattered Clouds
1:35 PM 73.4 °F 46.4 °F 38% 30.11 in 10.0 mi SW 10.4 mph 17.3 mph N/A   Scattered Clouds
2:15 PM 71.6 °F 46.4 °F 41% 30.12 in 10.0 mi SW 15.0 mph 20.7 mph N/A   Mostly Cloudy
2:35 PM 71.6 °F 48.2 °F 43% 30.11 in 10.0 mi SW 12.7 mph 20.7 mph N/A   Overcast
2:55 PM 69.8 °F 48.2 °F 46% 30.11 in 10.0 mi SW 10.4 mph 18.4 mph N/A   Overcast
3:15 PM 69.8 °F 50.0 °F 49% 30.11 in 10.0 mi SW 6.9 mph - N/A   Overcast
3:35 PM 68.0 °F 51.8 °F 56% 30.11 in 7.0 mi WNW 9.2 mph - N/A   Light Drizzle
3:55 PM 64.4 °F 53.6 °F 68% 30.11 in 5.0 mi West 3.5 mph - N/A   Haze
4:15 PM 64.4 °F 53.6 °F 68% 30.12 in 4.0 mi WSW 3.5 mph - N/A Rain Rain
4:35 PM 62.6 °F 55.4 °F 77% 30.11 in 5.0 mi SW 4.6 mph - N/A Rain Light Rain
4:55 PM 62.6 °F 57.2 °F 82% 30.11 in 4.0 mi SSW 6.9 mph - N/A Rain Rain
5:15 PM 62.6 °F 59.0 °F 88% 30.10 in 3.0 mi South 3.5 mph - N/A Rain Rain
5:35 PM 62.6 °F 59.0 °F 88% 30.09 in 3.0 mi SSW 3.5 mph - N/A Rain Rain
5:55 PM 62.6 °F 59.0 °F 88% 30.09 in 2.5 mi Calm Calm - N/A   Light Drizzle
6:15 PM 62.6 °F 59.0 °F 88% 30.10 in 4.0 mi Calm Calm - N/A   Mostly Cloudy
6:35 PM 62.6 °F 59.0 °F 88% 30.10 in 5.0 mi SW 3.5 mph - N/A   Mostly Cloudy
6:55 PM 62.6 °F 59.0 °F 88% 30.09 in 7.0 mi SW 3.5 mph - N/A   Mostly Cloudy
7:15 PM 62.6 °F 59.0 °F 88% 30.10 in 5.0 mi SSW 3.5 mph - N/A   Haze
7:35 PM 62.6 °F 59.0 °F 88% 30.09 in 4.0 mi Calm Calm - N/A Rain Light Rain
7:55 PM 62.6 °F 59.0 °F 88% 30.09 in 4.0 mi Calm Calm - N/A   Overcast
8:15 PM 62.6 °F 59.0 °F 88% 30.09 in 3.0 mi Calm Calm - N/A Rain Light Rain
8:35 PM 62.6 °F 59.0 °F 88% 30.09 in 4.0 mi Calm Calm - N/A Rain Light Rain
8:55 PM 62.6 °F 59.0 °F 88% 30.11 in 2.0 mi Calm Calm - N/A Rain Light Rain
9:15 PM 62.6 °F 59.0 °F 88% 30.11 in 0.8 mi NW 3.5 mph - N/A Rain Light Rain
9:35 PM 60.8 °F 57.2 °F 88% 30.13 in 3.0 mi NW 8.1 mph - N/A   Overcast
9:55 PM 57.2 °F 53.6 °F 88% 30.14 in 5.0 mi NW 4.6 mph - N/A   Overcast
11:15 PM 53.6 °F 50.0 °F 88% 30.15 in 10.0 mi Calm Calm - N/A   Overcast
11:35 PM 51.8 °F 50.0 °F 94% 30.16 in 10.0 mi West 3.5 mph - N/A   Overcast
11:55 PM 51.8 °F 48.2 °F 88% 30.16 in 10.0 mi WNW 5.8 mph - N/A   Overcast